S-NET A (43188 NORAD) Tracking and Keplerian Element Data

This shows tracking and keplerian element data for the satellite.

Feedback or suggestion? Click here.




ElementValue
Catalog43188
NameS-NET A
Epoch Orbit8403
Epoch Day229.19488599
Epoch Year2019
RAAN136.779
Inclination97.7047
Eccentricity0.001127
Argument of Perigee159.8218
Mean Anonmoly200.3451
Mean Motion14.96662347
Decay Rate-4.04E-06
L11 43188U 18014J 19229.19488599 -.00000404 00000-0 -30308-4 0 9992
L22 43188 97.7047 136.7790 0011270 159.8218 200.3451 14.96662347 84036

Live tracking and technical data element details for S-NET A (NORAD 43188). S-NET A can be tracked NOW for your location showing map with azimuth and elevation plus other details from your city location.

Track the satellite on the map from your city or location and see movement details for azimuth, elevation, latitude, longitude, range, height, and movement on the map or in text.







IsCatalogInMostPopularTable: catalog: 43188, numindb: 301
Update: records affected: 1



GetName: 43188 S-NET A

Hit Count: updated at: Wed, 21 Aug 2019 11:27:13 GMT